Powrót do katalogu

DELTA 1 DEB

AktywnySSO
NORAD 10748·DEBRIS·🇺🇸 United States

Wystrzelony Jul 29, 1976 z Vandenberg Space Force Base

Loading…

Następne Przeloty (najbliższe 24 godziny)

TLE

ŚwieżeSource: Space-Track

Epoka: Sep 14, 2026, 10:32 UTC

1 10748U 76077AV  26257.43952184 -.00000037  00000-0  82284-4 0  9994
2 10748 102.4969 243.0678 0073201 290.7415 224.8995 12.29765926249681

Śledź DELTA 1 DEB w czasie rzeczywistym z AllMySat

Download on the App Store